Wind_Speed
11 7 7 6 6 5 3 1 1 1 1 1 1 1 1 3 3 2 1 4 3 2 3 4 4 3 3 3 3 3 5 6 7 7 8 7 7 8 9 9 9 8 8
16 10 9 10 9 8 6 2 1 0 1 1 1 1 1 3 4 3 2 5 3 2 4 3 3 2 3 3 2 3 4 6 8 9 9 7 7 8 9 9 9 9 8
21 14 10 12 12 10 9 6 2 2 2 1 2 2 2 2 3 2 2 4 3 3 4 3 3 3 3 3 3 4 4 7 9 9 9 10 9 10 10 9 9 8 7
12 19 15 13 14 11 10 7 5 4 4 3 3 3 3 3 4 4 4 3 4 4 6 5 4 3 2 3 4 5 7 7 8 8 8 8 8 8 8 7 7 7 7
11 15 14 14 13 12 11 8 5 6 6 5 4 3 3 4 5 6 5 4 2 3 5 5 4 2 1 2 5 7 7 8 7 7 7 6 7 7 6 6 5 5 5
12 12 13 15 15 15 12 9 6 6 7 6 5 4 3 3 5 7 7 6 3 0 3 4 3 2 1 2 4 7 7 7 6 6 6 6 5 5 5 4 3 3 3
17 16 14 15 17 17 14 11 11 8 8 8 6 5 5 5 5 8 8 8 4 2 1 2 2 1 0 2 4 5 6 6 6 5 5 4 4 4 3 2 1 1 1
24 22 18 17 19 20 18 17 16 12 10 9 7 6 6 7 7 8 8 8 5 4 4 2 2 1 0 2 3 4 5 5 5 5 4 4 3 3 2 2 1 1 2
23 25 25 22 22 23 20 19 17 15 11 10 9 9 8 9 10 10 9 9 7 6 6 5 4 3 3 3 3 4 4 5 5 5 5 5 5 5 4 4 4 4 4
26 26 29 28 27 26 25 22 20 17 14 12 11 11 11 12 13 12 13 12 11 9 9 8 7 5 5 5 5 4 5 5 6 6 7 7 8 7 7 7 7 6 6
31 32 31 29 29 29 28 27 25 22 20 18 16 14 14 14 14 15 16 16 14 13 11 11 10 8 8 7 6 6 6 6 7 7 8 9 9 9 9 9 9 8 7
34 36 34 33 31 31 29 29 28 27 27 25 22 19 17 15 16 17 18 18 18 16 15 14 13 11 9 8 8 8 8 8 8 9 9 10 10 10 10 10 10 9 8
37 38 37 36 35 34 33 30 30 30 28 28 26 24 22 19 18 18 20 23 23 21 18 17 16 14 12 11 11 10 9 9 9 9 10 10 10 10 10 10 10 10 9
40 42 41 40 40 37 36 35 33 32 31 29 27 27 25 23 21 20 21 23 24 24 22 20 19 17 16 14 14 12 11 11 11 11 11 10 11 11 11 10 10 9 9
42 42 45 44 43 41 42 40 38 35 35 32 32 30 28 27 25 24 23 23 23 26 25 24 22 21 19 18 16 15 14 13 13 12 12 12 12 12 11 11 10 10 10
39 44 46 48 48 46 44 42 37 38 37 36 35 33 32 30 28 26 24 23 25 27 26 26 24 24 22 21 20 19 18 16 15 14 14 14 14 13 12 12 11 11 10
40 41 47 51 50 50 49 47 45 41 36 38 34 34 34 33 32 30 27 24 24 27 28 29 25 28 26 25 24 22 21 19 18 17 17 16 16 16 15 14 14 13 12
40 42 44 50 54 53 52 51 47 45 42 39 37 35 36 34 35 32 29 27 23 27 31 31 33 27 31 30 28 26 24 24 22 21 20 19 19 19 19 18 17 16 14
43 42 45 49 55 58 56 55 52 47 44 40 38 36 35 35 32 30 29 29 26 26 29 34 33 29 32 31 31 31 28 28 27 25 23 22 22 21 21 21 19 17 15
42 44 43 46 51 58 61 59 57 54 51 46 40 37 33 33 35 33 30 29 32 30 29 29 31 28 24 34 35 38 33 33 32 29 27 26 24 24 24 23 22 19 17
37 37 38 40 43 50 58 64 61 58 55 51 45 39 38 34 31 31 27 26 25 25 29 27 28 31 27 28 25 35 41 39 40 35 33 32 28 24 27 26 26 22 21
36 34 33 35 37 40 48 55 62 60 56 51 48 44 40 37 36 35 27 24 21 19 20 25 26 24 23 23 25 27 31 35 42 43 38 40 32 30 29 28 29 27 25
36 33 34 35 37 39 41 49 57 62 60 55 51 48 42 38 36 36 35 33 31 30 31 33 31 34 33 31 30 34 34 40 36 38 46 45 37 29 34 34 34 33 32
33 30 30 30 30 33 43 47 52 60 62 58 52 47 44 43 42 38 36 35 30 32 34 35 33 34 36 36 38 41 41 41 38 38 45 49 42 37 37 35 36 35 35
30 27 26 26 26 27 35 47 50 57 59 56 51 48 47 45 42 39 38 37 37 33 32 30 32 36 39 45 48 48 46 43 42 42 41 47 39 39 35 37 41 45 44
29 27 25 23 22 22 26 40 49 52 55 54 51 49 49 46 45 43 42 41 40 40 39 42 41 44 48 51 52 50 49 45 45 46 48 49 44 43 42 45 51 32 43
Wind_Direction
207 178 173 202 198 206 206 264 331 107 144 160 129 182 242 255 246 246 158 126 114 77 25 20 24 43 77 111 127 139 142 132 121 116 110 110 110 108 108 107 104 98 92
226 229 196 197 195 190 189 193 1 295 300 176 186 231 230 257 252 236 153 128 119 72 25 28 56 55 87 105 131 142 142 135 127 121 110 107 105 109 105 108 101 96 90
225 214 208 197 200 195 203 211 271 249 308 223 246 267 254 231 231 211 161 130 107 53 27 32 72 82 97 110 127 132 136 134 127 125 119 107 108 109 109 109 101 94 84
211 213 210 202 195 210 211 223 240 258 271 253 243 274 271 220 194 184 161 133 112 44 18 14 42 54 91 121 134 137 135 131 128 124 123 124 119 114 111 102 93 83 73
189 187 188 193 201 210 213 223 234 272 277 272 260 260 252 227 191 174 154 162 116 34 8 7 17 38 63 137 141 139 139 138 133 128 123 120 121 115 109 100 87 76 75
202 196 189 191 200 207 206 214 238 262 270 263 265 262 242 226 199 178 175 182 199 11 355 359 3 10 87 138 146 146 147 145 141 138 137 136 134 127 116 105 99 81 60
218 209 202 199 205 210 214 221 233 242 260 254 249 242 226 224 209 203 190 187 207 239 283 334 345 355 45 157 162 160 156 156 157 158 158 157 154 143 146 147 145 66 17
231 226 211 212 213 216 220 223 225 223 240 238 237 241 225 219 214 212 213 205 224 250 264 270 280 279 184 183 178 180 175 176 180 185 194 199 202 205 219 233 268 294 299
226 222 215 217 214 218 220 218 219 218 221 231 228 226 228 229 225 221 220 225 230 246 261 263 241 221 194 192 199 204 204 204 205 212 221 230 239 243 251 263 272 274 284
223 225 224 222 218 220 221 219 214 213 215 218 225 223 223 225 224 229 225 227 228 237 248 257 257 236 206 204 206 212 225 228 231 237 241 243 247 254 263 268 272 277 283
224 223 227 231 218 216 216 217 220 221 219 220 223 226 224 229 232 229 230 231 231 238 240 242 246 245 232 217 216 220 226 238 246 248 252 256 260 262 266 271 275 279 283
228 226 228 228 225 222 219 215 218 222 225 227 225 227 229 226 231 228 233 235 238 240 241 240 239 239 238 236 229 226 231 237 244 251 258 262 265 267 266 267 271 272 271
231 229 228 227 230 230 226 222 216 218 222 225 227 229 232 234 230 229 230 236 244 247 245 244 243 240 233 233 234 240 244 249 253 257 259 259 262 266 266 264 264 266 269
237 235 235 234 231 230 228 229 228 225 222 223 226 228 228 234 237 233 230 234 239 244 240 240 240 238 235 233 234 235 243 252 259 262 261 261 262 262 261 263 267 269 269
243 239 238 236 234 232 232 234 235 233 234 230 229 227 228 229 233 242 244 240 238 242 242 241 240 239 237 236 238 238 241 248 253 258 263 261 261 264 263 264 266 268 271
248 241 239 239 237 237 236 236 237 235 235 235 232 229 228 230 230 235 239 243 241 239 240 241 243 241 241 242 240 239 241 245 250 255 256 260 260 263 263 267 272 273 272
249 246 240 239 239 237 236 238 238 239 231 232 232 234 232 230 232 231 232 233 233 236 236 241 237 243 241 242 242 243 245 244 245 248 251 256 260 262 263 264 269 272 269
252 244 241 238 238 238 236 235 236 236 236 234 233 233 231 232 230 229 228 231 231 233 234 237 242 237 242 238 240 245 247 251 247 246 250 254 256 259 263 266 267 269 268
260 250 241 238 235 234 234 234 233 233 234 234 231 230 232 232 230 226 228 237 232 229 235 240 243 254 246 247 248 245 244 252 254 254 254 255 258 259 262 266 265 262 256
259 256 247 241 238 234 231 233 232 231 232 234 234 233 231 239 234 231 228 239 238 235 236 242 247 258 253 262 252 245 248 250 251 250 253 256 258 262 262 260 258 251 245
265 262 258 248 243 238 235 232 233 233 233 235 235 235 237 239 241 229 220 224 232 242 245 245 248 253 267 260 264 254 261 255 256 249 250 254 254 265 267 263 256 243 248
257 255 252 249 245 242 238 235 232 234 236 235 234 234 235 233 230 241 225 225 225 239 251 253 258 261 267 264 277 277 272 267 271 262 248 245 248 260 265 260 251 250 260
255 254 251 245 239 238 238 234 230 229 232 232 229 230 231 235 230 231 239 245 257 259 265 262 265 269 270 270 274 275 267 274 281 263 248 247 238 249 264 257 249 250 259
246 247 244 242 248 246 237 230 227 226 228 230 229 230 230 231 234 239 242 246 242 255 260 263 263 266 266 269 278 282 276 271 266 267 255 243 241 252 253 250 249 249 262
238 240 240 242 252 250 238 231 226 222 224 226 227 228 230 231 232 237 242 246 251 252 248 251 260 260 263 273 276 276 270 267 260 262 264 254 232 248 252 250 250 262 264
236 244 249 243 249 244 235 226 225 221 221 222 223 225 231 234 236 239 244 249 253 249 254 263 263 263 268 272 269 267 266 266 261 262 261 248 239 247 249 254 256 251 265
Height
3161 3162 3163 3165 3165 3167 3168 3168 3168 3167 3168 3167 3167 3167 3167 3167 3168 3168 3169 3169 3169 3169 3168 3168 3167 3167 3166 3167 3167 3167 3167 3167 3167 3168 3168 3168 3168 3167 3167 3167 3167 3167 3167
3159 3160 3161 3163 3164 3165 3167 3168 3168 3168 3168 3168 3167 3167 3166 3167 3168 3168 3169 3170 3169 3169 3169 3168 3167 3167 3167 3167 3167 3168 3168 3168 3168 3168 3169 3169 3169 3169 3169 3168 3168 3168 3168
3156 3159 3160 3160 3162 3164 3165 3167 3167 3167 3167 3167 3167 3167 3167 3167 3167 3168 3169 3170 3170 3169 3169 3169 3168 3168 3167 3167 3168 3169 3169 3170 3169 3169 3170 3171 3170 3170 3170 3169 3168 3168 3168
3155 3156 3158 3159 3160 3162 3164 3165 3166 3166 3166 3167 3167 3167 3167 3167 3167 3168 3169 3170 3170 3170 3170 3169 3169 3168 3168 3168 3168 3169 3170 3171 3171 3171 3171 3171 3171 3171 3170 3170 3170 3170 3169
3153 3154 3155 3157 3159 3161 3163 3164 3165 3166 3166 3166 3167 3167 3166 3167 3167 3168 3169 3169 3170 3170 3170 3170 3169 3169 3169 3169 3169 3170 3170 3171 3172 3172 3172 3172 3172 3171 3171 3171 3171 3170 3170
3152 3153 3153 3154 3157 3158 3160 3162 3164 3165 3165 3165 3166 3166 3166 3167 3167 3167 3169 3169 3170 3170 3170 3170 3170 3170 3170 3170 3170 3171 3171 3172 3172 3172 3172 3172 3172 3172 3171 3171 3171 3170 3170
3148 3150 3152 3153 3154 3157 3159 3160 3162 3163 3164 3164 3164 3164 3165 3166 3167 3168 3168 3169 3170 3170 3170 3170 3170 3170 3171 3171 3171 3172 3172 3173 3173 3173 3173 3173 3173 3172 3171 3171 3171 3171 3170
3146 3148 3149 3151 3152 3154 3156 3157 3159 3160 3161 3162 3163 3163 3164 3164 3166 3167 3168 3169 3170 3170 3170 3169 3170 3170 3170 3171 3172 3172 3172 3173 3173 3173 3174 3173 3173 3172 3172 3172 3171 3171 3170
3143 3145 3146 3148 3148 3150 3152 3153 3156 3157 3159 3160 3161 3162 3163 3163 3164 3165 3166 3167 3168 3169 3170 3170 3169 3169 3170 3170 3171 3172 3172 3172 3173 3173 3173 3173 3173 3172 3172 3171 3171 3170 3169
3140 3142 3142 3144 3144 3147 3148 3151 3152 3154 3156 3157 3158 3159 3160 3161 3162 3163 3165 3166 3167 3168 3169 3169 3169 3169 3168 3169 3170 3171 3172 3172 3172 3172 3172 3172 3172 3172 3171 3171 3170 3169 3169
3136 3137 3139 3140 3141 3142 3143 3146 3148 3150 3152 3153 3155 3157 3157 3159 3160 3161 3162 3163 3164 3166 3166 3167 3168 3168 3168 3168 3169 3170 3170 3171 3172 3171 3171 3171 3171 3170 3170 3169 3169 3169 3168
3131 3133 3135 3137 3138 3139 3140 3141 3143 3145 3147 3149 3151 3153 3154 3155 3157 3159 3160 3160 3161 3163 3164 3165 3166 3167 3167 3168 3168 3168 3169 3169 3169 3169 3169 3169 3169 3169 3168 3167 3167 3167 3166
3124 3127 3129 3132 3134 3135 3137 3137 3138 3140 3142 3144 3146 3149 3150 3151 3153 3155 3156 3157 3159 3161 3162 3163 3163 3164 3165 3166 3166 3167 3167 3168 3168 3168 3167 3167 3167 3166 3166 3165 3165 3164 3164
3117 3120 3122 3125 3128 3130 3132 3133 3134 3135 3136 3139 3141 3143 3146 3147 3149 3150 3152 3154 3155 3156 3158 3159 3160 3162 3162 3163 3164 3164 3165 3166 3166 3166 3165 3165 3165 3164 3163 3163 3163 3163 3162
3108 3112 3115 3117 3120 3123 3126 3127 3129 3131 3132 3134 3135 3137 3140 3142 3144 3146 3148 3149 3151 3152 3154 3156 3157 3158 3160 3161 3162 3162 3162 3163 3163 3163 3163 3163 3162 3162 3162 3161 3161 3161 3161
3100 3103 3106 3107 3111 3115 3118 3121 3123 3125 3127 3128 3130 3132 3134 3137 3138 3140 3143 3144 3147 3148 3150 3152 3153 3155 3157 3158 3158 3159 3160 3160 3160 3161 3160 3161 3160 3160 3160 3159 3159 3159 3159
3090 3093 3095 3098 3101 3104 3109 3112 3115 3119 3119 3121 3124 3126 3128 3130 3133 3135 3137 3138 3140 3143 3145 3147 3148 3150 3152 3153 3155 3155 3157 3157 3157 3157 3156 3157 3158 3158 3157 3157 3156 3156 3156
3078 3081 3084 3086 3090 3094 3098 3102 3106 3109 3111 3114 3117 3120 3122 3124 3127 3129 3131 3133 3135 3137 3139 3141 3143 3143 3146 3148 3149 3151 3152 3154 3153 3153 3153 3153 3153 3154 3154 3154 3153 3153 3153
3066 3069 3072 3074 3077 3081 3087 3091 3096 3100 3102 3106 3109 3112 3115 3118 3121 3122 3126 3129 3130 3131 3133 3135 3137 3139 3142 3143 3145 3145 3146 3148 3150 3150 3151 3150 3149 3149 3149 3149 3149 3149 3149
3055 3057 3060 3063 3066 3070 3074 3079 3085 3090 3095 3098 3102 3106 3109 3111 3114 3117 3119 3122 3124 3126 3128 3130 3133 3134 3135 3137 3138 3140 3141 3142 3143 3144 3145 3145 3145 3145 3144 3144 3143 3144 3144
3046 3047 3049 3053 3056 3059 3062 3067 3074 3079 3086 3091 3096 3101 3103 3106 3110 3110 3113 3116 3118 3121 3123 3125 3127 3129 3130 3130 3131 3134 3135 3136 3137 3138 3138 3140 3139 3139 3140 3140 3139 3138 3138
3036 3037 3038 3041 3045 3047 3051 3056 3064 3071 3077 3083 3088 3091 3096 3099 3101 3106 3106 3110 3113 3115 3117 3120 3121 3122 3123 3124 3125 3127 3127 3130 3129 3128 3131 3132 3134 3132 3133 3133 3133 3132 3132
3026 3028 3029 3031 3033 3036 3039 3042 3049 3058 3064 3070 3076 3082 3088 3093 3095 3098 3101 3104 3108 3110 3112 3114 3114 3115 3117 3117 3118 3119 3117 3117 3121 3119 3121 3123 3124 3124 3125 3126 3125 3124 3123
3016 3017 3019 3023 3025 3026 3027 3030 3035 3045 3053 3061 3069 3076 3080 3083 3088 3091 3093 3096 3099 3103 3104 3105 3106 3107 3109 3107 3108 3108 3108 3108 3108 3109 3111 3113 3116 3117 3118 3117 3117 3117 3117
3006 3009 3011 3014 3016 3016 3016 3021 3026 3034 3043 3052 3061 3067 3071 3075 3080 3083 3086 3088 3091 3094 3096 3097 3099 3100 3100 3101 3099 3100 3099 3099 3099 3099 3099 3102 3104 3108 3108 3107 3107 3109 3111
2998 3001 3004 3006 3007 3007 3008 3012 3017 3025 3034 3044 3051 3057 3062 3067 3071 3075 3078 3081 3083 3085 3087 3089 3090 3089 3090 3089 3088 3088 3087 3088 3089 3090 3090 3094 3095 3098 3097 3097 3098 3098 3101